AO-07 1 07530U 74089B 21343.88532635 -.00000031 00000-0 93506-4 0 9998 2 07530 101.8803 318.3537 0012482 45.7616 341.7988 12.53651665153711 UO-11 1 14781U 84021B 21343.91844486 .00000148 00000-0 24136-4 0 9996 2 14781 97.6031 335.2206 0007432 216.7532 143.3174 14.83379720 11944 LO-19 1 20442U 90005G 21343.88390920 .00000017 00000-0 22717-4 0 9999 2 20442 98.7672 301.1511 0011977 10.8768 349.2672 14.33009833665958 HUBBLE 1 20580U 90037B 21343.70814690 .00000706 00000-0 31536-4 0 9997 2 20580 28.4714 345.3006 0002813 146.8297 16.2644 15.09871269537506 MET-2/21 1 22782U 93055A 21343.76612503 .00000032 00000-0 15317-4 0 9992 2 22782 82.5476 164.7890 0022787 157.0904 213.4301 13.83842514427772 AO-27 1 22825U 93061C 21343.91693802 -.00000011 00000-0 13598-4 0 9992 2 22825 98.9068 5.7509 0007553 240.4277 119.6152 14.30134419471066 IO-26 1 22826U 93061D 21343.91560994 -.00000003 00000-0 16640-4 0 9990 2 22826 98.9011 5.6427 0008228 226.4307 133.6192 14.30475736471319 FO-29 1 24278U 96046B 21343.84379887 -.00000059 00000-0 -25936-4 0 9990 2 24278 98.5437 28.3891 0351158 55.2302 308.1367 13.53108249249966 NOAA-15 1 25338U 98030A 21343.91484833 .00000024 00000-0 28282-4 0 9996 2 25338 98.6657 10.7283 0011242 126.9501 233.2710 14.26074703226001 GO-32 1 25397U 98043D 21343.82073816 .00000002 00000-0 20438-4 0 9991 2 25397 98.7937 289.0543 0000625 352.3102 7.8066 14.23723944216444 ISS 1 25544U 98067A 21343.88482639 .00000143 00000-0 10791-4 0 9991 2 25544 51.6415 193.9729 0004414 287.4837 253.6360 15.48949833315824 NO-44 1 26931U 01043C 21343.86154913 -.00000022 00000-0 23137-4 0 9994 2 26931 67.0496 187.7378 0006064 279.9508 80.0908 14.30647192 54283 SO-50 1 27607U 02058C 21343.67312690 .00000025 00000-0 24224-4 0 9999 2 27607 64.5533 162.4896 0062279 333.5701 26.2228 14.75843668 20369 CO-55 1 27844U 03031E 21343.63972103 .00000068 00000-0 50385-4 0 9995 2 27844 98.6804 349.1994 0008909 294.4087 65.6161 14.22356996956889 CO-57 1 27848U 03031J 21343.96680471 .00000051 00000-0 42746-4 0 9993 2 27848 98.6855 350.0715 0008904 308.5342 51.5037 14.21927595956757 RS-22 1 27939U 03042A 21343.80752257 .00000239 00000-0 51294-4 0 9997 2 27939 98.1659 119.9521 0014155 87.6044 272.6785 14.67074148973236 NOAA-18 1 28654U 05018A 21343.88906887 .00000093 00000-0 74379-4 0 9992 2 28654 98.9745 49.2750 0014924 144.5610 215.6556 14.12664866853210 CO-58 1 28895U 05043F 21343.32990895 .00000218 00000-0 50545-4 0 9996 2 28895 98.0820 113.0108 0017077 24.0696 336.1301 14.64020751859597 Falconsat-3 1 30776U 07006E 21343.90048634 .00005729 00000-0 12592-3 0 9998 2 30776 35.4348 50.7959 0001748 93.7788 266.3140 15.43406271820206 CO-65 1 32785U 08021C 21343.74856698 .00000442 00000-0 52707-4 0 9997 2 32785 97.6336 316.0116 0013814 137.3908 222.8384 14.88920984738254 AAUSAT2 1 32788U 08021F 21343.95990563 .00000631 00000-0 61064-4 0 9999 2 32788 97.5180 331.4242 0012652 45.2394 314.9855 14.96003745740096 DO-64 1 32789U 08021G 21343.82264330 .00002314 00000-0 14594-3 0 9997 2 32789 97.3602 12.3771 0009812 256.6600 103.3536 15.10030957743280 CO-66 1 32791U 08021J 21343.65993098 .00000462 00000-0 51249-4 0 9992 2 32791 97.5907 321.6480 0014614 101.1045 259.1818 14.91690891738890 RS-30 1 32953U 08025A 21343.92226552 .00000021 00000-0 80971-4 0 9995 2 32953 82.5013 301.7948 0019077 317.6079 42.3530 12.43106228614784 PRISM 1 33493U 09002B 21343.88460871 .00001517 00000-0 13321-3 0 9995 2 33493 98.2129 315.1490 0016756 68.0879 292.2121 14.98159685700586 NOAA-19 1 33591U 09005A 21343.86948316 .00000049 00000-0 51939-4 0 9997 2 33591 99.1703 8.8152 0013931 4.3557 355.7732 14.12513653661429 SRMSAT 1 37841U 11058D 21343.64871447 .00000324 00000-0 33088-4 0 9997 2 37841 19.9732 322.1784 0012026 59.4014 97.4769 14.10714614524403 HRBE 1 37855U 11061F 21343.89295914 .00001718 00000-0 87721-4 0 9993 2 37855 101.7231 358.5847 0163034 268.4966 89.7567 15.08911104552625 RS-40 1 38735U 12041C 21343.79840524 .00000029 00000-0 13986-3 0 9997 2 38735 82.4800 23.7586 0018217 66.4015 293.8974 12.42584109424965 ZACUBE-1 1 39417U 13066B 21343.77369713 .00000482 00000-0 66093-4 0 9998 2 39417 97.6136 319.2204 0057279 307.4495 52.1515 14.81710430435034 Delfi-N3xt 1 39428U 13066N 21343.71428884 .00000477 00000-0 82348-4 0 9994 2 39428 97.7988 281.5587 0119378 163.4983 197.0162 14.68284043430682 GOMX-1 1 39430U 13066Q 21343.94961271 .00000497 00000-0 98585-4 0 9996 2 39430 97.8147 256.9360 0148992 282.3559 76.0996 14.59769322428644 LO-74 1 39440U 13066AA 21343.65670388 .00000503 00000-0 75842-4 0 9990 2 39440 97.7012 304.5878 0080394 28.0815 332.4697 14.76416324432271 AO-73 1 39444U 13066AE 21343.91853105 .00000531 00000-0 70588-4 0 9996 2 39444 97.6030 321.7473 0056113 296.1338 63.4110 14.82657766433430 SPROUT 1 39770U 14029E 21343.57267620 .00001791 00000-0 19642-3 0 9993 2 39770 97.9299 94.8880 0008718 0.0901 0.0217 14.88981949409390 DTUSAT-2 1 40030U 14033W 21343.53589123 .00000506 00000-0 59497-4 0 9996 2 40030 97.9257 270.8104 0011028 325.5514 34.4987 14.89212095405372 EO-80 1 40032U 14033Y 21343.77257713 .00000485 00000-0 57336-4 0 9997 2 40032 97.9263 271.0570 0010967 325.5690 34.4815 14.89174937405380 HODOYOSHI-1 1 40299U 14070B 21343.83408448 .00001430 00000-0 59494-4 0 9991 2 40299 97.2694 52.5433 0014360 88.3619 20.6442 15.25258650394142 FIREBIRD FU3 1 40377U 15003B 21343.81115774 .00003382 00000-0 12008-3 0 9997 2 40377 99.1134 162.2592 0112138 304.8977 54.1755 15.24273502379480 FIREBIRD FU4 1 40378U 15003C 21343.71532263 .00003843 00000-0 13557-3 0 9995 2 40378 99.1139 162.3148 0112140 304.9761 54.0982 15.24338482379478 GRIFEX 1 40379U 15003D 21343.72944452 .00002087 00000-0 84778-4 0 9997 2 40379 99.1143 150.0853 0124440 341.7436 17.9346 15.19408486378786 NO-84 1 40654U 15025D 21342.36176724 .00394769 83516-4 50897-3 0 2776 2 40654 54.9639 287.6158 0026651 160.1082 200.0794 16.05899892 34558 XW-2A 1 40903U 15049E 21343.83003435 .00004971 00000-0 99250-4 0 9994 2 40903 97.2125 37.7326 0013387 93.9928 18.9149 15.47208701349894 XW-2C 1 40906U 15049H 21343.82889009 .00001410 00000-0 74067-4 0 9999 2 40906 97.4905 344.0966 0012885 302.9007 178.4056 15.17282212344151 XW-2D 1 40907U 15049J 21343.84809122 .00001738 00000-0 89557-4 0 9993 2 40907 97.4892 343.9773 0012279 298.6405 180.7612 15.17677415344192 LILACSAT-2 1 40908U 15049K 21343.82935152 .00000671 00000-0 39714-4 0 9990 2 40908 97.5109 341.5392 0014564 318.5355 162.5144 15.14755210343779 XW-2E 1 40909U 15049L 21343.82425659 .00002580 00000-0 12131-3 0 9991 2 40909 97.4673 348.1835 0011072 280.1681 158.8421 15.20444602344579 XW-2F 1 40910U 15049M 21343.82771146 .00002596 00000-0 12381-3 0 9992 2 40910 97.4739 347.2828 0012159 280.3245 203.2813 15.19940361344358 XW-2B 1 40911U 15049N 21343.86080042 .00001825 00000-0 94086-4 0 9992 2 40911 97.4883 344.6422 0012156 300.4628 178.6562 15.17587726344082 DCBB 1 40912U 15049P 21343.85517454 .00002850 00000-0 12548-3 0 9995 2 40912 97.4427 351.6899 0012312 245.7803 236.4129 15.22601302344875 TW-1A 1 40928U 15051D 21343.82644255 .00008908 00000-0 16678-3 0 9990 2 40928 97.0625 4.6875 0009581 20.6491 153.5846 15.48866584348809 IO-86 1 40931U 15052B 21342.79522191 .00000746 00000-0 14666-4 0 9992 2 40931 5.9972 88.9168 0013648 348.8687 11.1517 14.76708862335115 ATHENOXAT-1 1 41168U 15077C 21343.86858271 .00003854 00000-0 15485-3 0 9994 2 41168 14.9823 50.4039 0010291 99.8553 53.5587 15.16833729331445 ChubuSat-2 1 41338U 16012B 21343.87395351 .00000448 00000-0 27746-4 0 9999 2 41338 31.0014 150.2863 0013475 72.1356 288.0749 15.00719371318979 ChubuSat-3 1 41339U 16012C 21343.81401494 .00000576 00000-0 37529-4 0 9992 2 41339 31.0104 147.7246 0013289 78.8408 281.3720 15.00852669318962 Horyu-4 1 41340U 16012D 21343.79311339 .00000781 00000-0 51263-4 0 9998 2 41340 31.0037 129.1626 0013536 114.5269 245.6779 15.02207807319174 e-st@r-II 1 41459U 16025D 21343.84919750 .00004983 00000-0 23802-3 0 9995 2 41459 98.1646 130.9317 0156118 190.6411 169.1487 15.09375176308862 AAUSAT4 1 41460U 16025E 21343.88772404 .00009219 00000-0 40934-3 0 9996 2 41460 98.1605 135.7968 0141714 171.5105 188.8533 15.13141177309226 LO-87 1 41557U 16033B 21343.80983037 .00003286 00000-0 11333-3 0 9999 2 41557 97.3931 76.8825 0011831 339.7205 118.2849 15.30652091308348 NuSat2 1 41558U 16033C 21343.89555347 .00003220 00000-0 10408-3 0 9998 2 41558 97.4083 81.6443 0010562 330.9966 123.7007 15.32784547308582 Lapan A3 1 41603U 16040E 21343.90428351 .00000371 00000-0 20125-4 0 9995 2 41603 97.2331 23.9557 0015155 105.6493 67.0843 15.20190852303239 Pratham 1 41783U 16059A 21343.87447912 .00000084 00000-0 25174-4 0 9994 2 41783 97.9418 27.7559 0034543 54.1141 306.3260 14.63198743277904 TY-1 1 41844U 16066D 21343.85901684 .00002019 00000-0 79989-4 0 9992 2 41844 97.3954 352.3124 0012608 236.0114 244.9298 15.26523202282653 CAS-2T 1 41847U 16066G 21343.93041900 .00000104 00000-0 25239-4 0 9992 2 41847 98.5794 43.5856 0365811 56.5386 307.0212 14.38298105267108 EO-88 1 42017U 17008BX 21343.91032699 .00002665 00000-0 95457-4 0 9995 2 42017 97.2963 48.3136 0005353 188.7931 171.3217 15.29614459268060 CAS-4B 1 42759U 17034B 21343.80788523 .00001101 00000-0 78647-4 0 9995 2 42759 43.0181 296.8056 0007607 190.5950 253.1433 15.10604987247668 CAS-4A 1 42761U 17034D 21343.92428846 .00001161 00000-0 82066-4 0 9996 2 42761 43.0188 295.0909 0008179 191.9368 269.9645 15.10692536247688 NIUSat 1 42766U 17036B 21343.92593950 .00001524 00000-0 66485-4 0 9992 2 42766 97.2287 23.6696 0012953 277.8727 82.1040 15.23564301247923 Aalto 1 1 42775U 17036L 21343.91238004 .00001258 00000-0 55716-4 0 9996 2 42775 97.2250 23.7984 0011562 277.4195 82.5729 15.23355890247901 URSA MAIOR 1 42776U 17036M 21343.88084697 .00001512 00000-0 65764-4 0 9997 2 42776 97.2264 24.3427 0011320 276.6642 83.3307 15.23694695247928 Max Valier Sat 1 42778U 17036P 21343.68360677 .00001752 00000-0 74209-4 0 9992 2 42778 97.2334 26.4072 0009888 279.0300 80.9818 15.24410625247976 Pegasus 1 42784U 17036V 21343.90994849 .00001880 00000-0 77092-4 0 9993 2 42784 97.2281 27.2169 0009394 280.9756 79.0425 15.25418209248092 NUDATSat 1 42787U 17036Y 21343.92691312 .00004714 00000-0 17524-3 0 9999 2 42787 97.2320 30.2870 0008458 271.9933 88.0325 15.27965563248113 SUCHAI 1 1 42788U 17036Z 21343.80708973 .00002279 00000-0 90125-4 0 9992 2 42788 97.2289 28.3586 0008890 277.1223 82.9005 15.26442633248227 SKCUBE 1 42789U 17036AA 21343.87128250 .00002075 00000-0 83183-4 0 9994 2 42789 97.2285 28.0401 0008798 277.4938 82.5301 15.26082431248131 VZLUSAT 1 1 42790U 17036AB 21343.85961766 .00002912 00000-0 10948-3 0 9999 2 42790 97.2319 30.2068 0008056 270.3314 89.7003 15.27909408248256 VENTA 1 1 42791U 17036AC 21343.86288973 .00001846 00000-0 74633-4 0 9990 2 42791 97.2282 28.0155 0008479 278.8118 81.2161 15.25924866248123 Robusta 1B 1 42792U 17036AD 21343.87533566 .00002134 00000-0 84707-4 0 9997 2 42792 97.2287 28.4981 0008399 277.8227 82.2059 15.26377652248179 D-SAT 1 42794U 17036AF 21343.77333627 .00000803 00000-0 73768-4 0 9990 2 42794 97.4547 354.3061 0124986 0.6392 359.4965 14.91816006243192 TechnoSat 1 42829U 17042E 21343.84115017 .00000339 00000-0 39062-4 0 9998 2 42829 97.4417 203.8081 0012667 283.2430 76.7376 14.91424614239821 QIKCOM-1 1 42983U 98067NF 21343.67917758 .00012939 00000-0 10140-3 0 9992 2 42983 51.6349 86.2523 0003088 295.4366 64.6312 15.71972852234914 AO-91 1 43017U 17073E 21343.67389152 .00000824 00000-0 67421-4 0 9995 2 43017 97.6925 240.5905 0254868 88.4225 274.6163 14.79997484219038 PICSAT 1 43132U 18004X 21343.68798503 .00002678 00000-0 10361-3 0 9992 2 43132 97.3939 56.6202 0007458 317.8091 42.2573 15.27059298217415 AO-92 1 43137U 18004AC 21343.84463608 .00001749 00000-0 70394-4 0 9991 2 43137 97.3910 56.0154 0007319 320.9771 39.0939 15.26206910217408 TianYi 2 1 43155U 18008A 21343.82238740 .00001795 00000-0 10461-3 0 9999 2 43155 97.3814 43.3733 0018566 83.5037 28.1962 15.13105115214588 Zhou Enlai 1 43156U 18008B 21343.85699674 .00001764 00000-0 10395-3 0 9992 2 43156 97.3864 43.2514 0015825 82.8632 337.5782 15.12755342214521 TianYi 6 1 43158U 18008D 21343.68208799 .00001588 00000-0 95728-4 0 9997 2 43158 97.3820 41.3958 0014957 82.1389 35.0786 15.12082304214416 S-Net D 1 43186U 18014G 21343.66519530 .00000228 00000-0 24629-4 0 9993 2 43186 97.6676 247.9919 0010206 209.3462 150.7188 14.97256974210514 S-Net B 1 43187U 18014H 21343.46469313 .00000236 00000-0 25343-4 0 9998 2 43187 97.6673 247.7550 0010183 209.9863 150.0777 14.97256220210483 S-Net A 1 43188U 18014J 21343.73219610 .00000235 00000-0 25280-4 0 9991 2 43188 97.6678 248.0704 0010205 209.1045 150.9610 14.97255317210529 S-Net C 1 43189U 18014K 21343.66588735 .00000252 00000-0 26767-4 0 9991 2 43189 97.6672 247.9433 0010204 209.1470 150.9184 14.97254481209066 FMN 1 1 43192U 18015A 21343.81638868 .00006213 00000-0 21482-3 0 9997 2 43192 97.5111 120.5520 0013029 347.6046 147.5999 15.30203571214384 Shaonian Xing 1 43199U 18015H 21343.86739539 .00004050 00000-0 14603-3 0 9990 2 43199 97.4897 117.0420 0015171 357.8553 153.1593 15.29024479214432 SurfSat 1 43614U 18070B 21343.87830340 .00004843 00000-0 10351-3 0 9992 2 43614 93.0234 19.1801 0015244 50.0633 310.1960 15.44742920181721 CP-7 DAVE 1 43615U 18070C 21343.61011354 .00005299 00000-0 11481-3 0 9992 2 43615 93.0237 18.9970 0015516 51.1919 309.0721 15.44331829181667 ELFIN-B 1 43616U 18070D 21343.60991938 .00009157 00000-0 16905-3 0 9990 2 43616 93.0188 19.4707 0014487 47.0741 313.1731 15.48975170181844 ELFIN-A 1 43617U 18070E 21343.95416993 .00008033 00000-0 14426-3 0 9990 2 43617 93.0239 20.6495 0013554 43.5057 316.7270 15.49783398181921 CubeBel-1 1 43666U 18083E 21343.92279116 .00002472 00000-0 11711-3 0 9994 2 43666 97.4402 10.0249 0012587 277.9490 201.6702 15.20201989172667 Changshagaoxin 1 43669U 18083H 21343.86001333 .00002418 00000-0 11896-3 0 9998 2 43669 97.4329 6.5089 0008686 275.3991 208.8260 15.18935235172509 Ten-Koh 1 43677U 18084G 21343.80275494 .00000195 00000-0 25808-4 0 9992 2 43677 97.9412 107.5354 0016180 171.9821 188.1658 14.90613080169422 PO-101 1 43678U 18084H 21343.85374514 .00000453 00000-0 50602-4 0 9998 2 43678 97.9464 110.2903 0009721 183.2772 176.8409 14.91848612169582 IRVINE 01 1 43693U 18088D 21343.70181020 .00005262 00000-0 19019-3 0 9990 2 43693 85.0336 78.2820 0017176 97.4658 262.8540 15.28047042171177 QO-100 1 43700U 18090A 21343.91032470 .00000143 00000-0 00000-0 0 9999 2 43700 0.0142 30.4189 0002003 248.7882 153.1684 1.00272217 11127 Reaktor Hello World 1 43743U 18096AA 21343.93666498 .00002117 00000-0 75292-4 0 9999 2 43743 97.3724 60.0881 0016984 19.6713 340.5179 15.29979406168953 MinXSS-2 1 43758U 18099A 21343.92410804 .00000605 00000-0 58404-4 0 9991 2 43758 97.6490 51.3306 0015679 176.3918 183.7419 14.96356453164757 AO-95 1 43770U 18099N 21343.89235585 .00000264 00000-0 28848-4 0 9992 2 43770 97.6471 50.0450 0014248 185.0664 175.0415 14.95584276164678 RANGE-B 1 43772U 18099Q 21343.68093212 .00001248 00000-0 11627-3 0 9999 2 43772 97.6569 51.1245 0014309 172.2749 187.8695 14.95965414164658 RANGE-A 1 43773U 18099R 21343.91396410 .00000208 00000-0 23896-4 0 9999 2 43773 97.6397 49.2019 0013705 172.3861 187.7570 14.95404579164662 MOVE-II 1 43780U 18099Y 21343.64135909 .00000493 00000-0 48572-4 0 9995 2 43780 97.6496 50.5623 0013277 182.5494 177.5662 14.96342338164669 SNUSat 2 1 43782U 18099AA 21343.69705194 .00000110 00000-0 14913-4 0 9999 2 43782 97.6473 50.2566 0012806 170.9712 189.1742 14.95807043164666 SnugLite 1 43784U 18099AC 21343.82345811 .00000364 00000-0 37535-4 0 9998 2 43784 97.6435 50.0617 0014934 178.6045 181.5220 14.95951959164707 ITASat 1 1 43786U 18099AE 21343.84575388 .00000073 00000-0 11627-4 0 9997 2 43786 97.6490 50.7993 0015129 178.9690 181.1565 14.95840133164709 EAGLET 1 1 43790U 18099AJ 21343.63987947 -.00000077 00000-0 -17844-5 0 9991 2 43790 97.6483 51.0778 0013286 182.4776 177.6381 14.96158649164406 ESEO 1 43792U 18099AL 21343.78958203 .00000185 00000-0 21623-4 0 9999 2 43792 97.6440 50.6644 0013342 178.9336 181.1916 14.95848929164470 CSIM 1 43793U 18099AM 21343.76605148 .00000364 00000-0 36534-4 0 9991 2 43793 97.6497 51.3773 0012980 174.0539 186.0839 14.97016030164495 Astrocast 0.1 1 43798U 18099AS 21343.69383693 .00000403 00000-0 40490-4 0 9996 2 43798 97.6496 51.4094 0012731 160.5666 199.6044 14.96463193164720 JO-97 1 43803U 18099AX 21343.64424151 .00000240 00000-0 26334-4 0 9993 2 43803 97.6452 50.3402 0015041 179.3793 180.7449 14.96142119164683 Suomi 100 1 43804U 18099AY 21343.65382400 .00000531 00000-0 52222-4 0 9993 2 43804 97.6446 50.2996 0015230 179.3366 180.7878 14.96097789164699 Al Farabi 2 1 43805U 18099AZ 21343.95992924 .00001618 00000-0 14756-3 0 9991 2 43805 97.6470 50.9187 0015099 176.4912 183.6412 14.96406307164757 CHOMPTT 1 43855U 18104G 21343.79571179 .00001843 00000-0 72462-4 0 9999 2 43855 85.0365 177.2535 0015211 213.0737 146.9557 15.24807600165807 ISAT 1 43879U 18111D 21343.94950926 .00000967 00000-0 89135-4 0 9992 2 43879 97.6745 248.0064 0011793 231.4535 128.5630 14.96945760159303 UWE-4 1 43880U 18111E 21343.71011257 .00000279 00000-0 29101-4 0 9997 2 43880 97.6786 248.3543 0010582 233.8594 126.1650 14.97171545161303 Sparrow 1 43881U 18111F 21343.67356522 .00000716 00000-0 66787-4 0 9997 2 43881 97.6783 248.4877 0011238 230.7690 129.2535 14.97235700161304 Lume 1 1 43908U 18111AJ 21343.66359719 .00002205 00000-0 84902-4 0 9991 2 43908 97.2127 232.6339 0021069 33.9604 326.2980 15.27191314164404 FO-98 1 43933U 19003B 21343.84658240 .00017110 00000-0 51364-3 0 9997 2 43933 97.1646 19.2511 0014569 122.3508 237.9148 15.34400485160928 FO-99 1 43937U 19003F 21343.83461649 .00002098 00000-0 81487-4 0 9994 2 43937 97.1560 19.8928 0024200 108.6869 251.7000 15.26870984161013 MYSat 1 1 44045U 18092F 21343.22323800 .00006636 00000-0 15769-3 0 9992 2 44045 51.6366 291.7458 0010661 118.2047 242.0016 15.42887280158418 AstroCast 0.2 1 44083U 19018F 21343.66670701 .00002000 00000-0 86177-4 0 9999 2 44083 97.3513 41.3446 0013942 79.2141 281.0664 15.23654650149563 AISTechSat 3 1 44103U 19018AB 21343.94686801 .00002268 00000-0 93885-4 0 9991 2 44103 97.3381 42.0619 0014466 85.7527 88.9033 15.24864651149740 AISat 1 1 44104U 19018AC 21343.66841775 .00001750 00000-0 54866-4 0 9995 2 44104 97.4127 61.3531 0057107 91.3361 269.4424 15.32900710150507 Prox-1 1 44339U 19036A 21343.61541484 .00001154 00000-0 21950-3 0 9999 2 44339 24.0010 310.7231 0010002 296.6937 63.2531 14.53969345130681 Oculus-ASR 1 44348U 19036K 21343.87853220 .00013247 00000-0 16228-3 0 9999 2 44348 28.5112 41.2453 0302731 14.5406 346.3680 15.19350105135547 Armadillo 1 44352U 19036P 21343.40225772 .00022876 -56127-5 22636-3 0 9993 2 44352 28.5273 6.5218 0255320 68.7260 294.0401 15.31845595135808 NO-104 1 44354U 19036R 21343.51822296 .00014132 00000-0 16821-3 0 9999 2 44354 28.5275 34.1048 0296555 23.6368 337.7551 15.21195675135586 NO-103 1 44355U 19036S 21343.61174486 .00038015 -58460-5 29629-3 0 9997 2 44355 28.5246 312.0235 0199825 157.2987 203.6595 15.47552260136411 Move-IIb 1 44398U 19038N 21343.83589612 .00003260 00000-0 17810-3 0 9995 2 44398 97.6063 307.3948 0025308 65.5771 294.8098 15.14763717134307 SONATE 1 44400U 19038Q 21343.86760092 .00001358 00000-0 80086-4 0 9997 2 44400 97.6149 307.1087 0026215 67.4533 292.9468 15.13030024134254 BeeSat 9 1 44412U 19038AC 21343.85687892 .00001822 00000-0 10328-3 0 9992 2 44412 97.6126 307.5315 0023475 70.8018 289.5751 15.14068485133980 JAISAT-1 1 44419U 19038F 21343.83658010 .00001598 00000-0 89886-4 0 9993 2 44419 97.6130 308.1980 0022355 68.8572 291.5046 15.14553915134332 LightSail-2 1 44420U 19036AC 21343.87103738 .00009863 00000-0 18526-2 0 9993 2 44420 24.0033 275.9602 0005684 349.8030 10.2348 14.62743196129170 Taurus 1 1 44530U 19059C 21343.90876343 .00000818 00000-0 24035-3 0 9997 2 44530 98.5513 75.7568 0012623 335.4473 24.6106 14.46340981118447 Duchifat 3 1 44854U 19089C 21343.83855220 .00000820 00000-0 71253-4 0 9990 2 44854 36.9616 143.2105 0006429 119.0863 241.0512 14.99844591109440 OPS-SAT 1 44878U 19092F 21343.73402834 .00001723 00000-0 89904-4 0 9993 2 44878 97.4749 164.8015 0012116 282.6926 77.2953 15.17239073109409 TO-108 1 44881U 19093C 21343.93907816 .00000183 00000-0 30057-4 0 9994 2 44881 97.9122 60.7370 0016524 83.2453 277.0626 14.81520736106715 FloripaSat 1 1 44885U 19093G 21343.92081509 .00000616 00000-0 83221-4 0 9991 2 44885 97.9149 61.5890 0015988 90.4567 269.8451 14.82499140106768 RS-44 1 44909U 19096E 21343.75593633 .00000008 00000-0 -18487-4 0 9996 2 44909 82.5213 356.3307 0218183 43.4989 318.3092 12.79711419 91240 Phoenix 1 45258U 98067RB 21343.80732910 .00014199 00000-0 16171-3 0 9990 2 45258 51.6360 168.3013 0006215 185.7258 174.3666 15.62534121102566 AztechSat-1 1 45261U 98067RE 21343.64626850 .06206479 12307-4 81597-3 0 9992 2 45261 51.6094 133.7972 0007949 303.2662 56.7600 16.34692915103035 QARMAN 1 45263U 98067RG 21343.75695558 .00069650 00000-0 38996-3 0 9997 2 45263 51.6325 151.3792 0006571 217.3018 142.7527 15.78652250102847 Quetzal 1 1 45598U 98067RL 21343.69076136 .00041073 00000-0 29542-3 0 9992 2 45598 51.6349 160.0227 0003368 221.1917 138.8828 15.73173139 91998 BY70-2 1 45857U 20042B 21343.93506747 .00002028 00000-0 29022-3 0 9991 2 45857 97.9731 57.8160 0010651 15.5621 344.5876 14.77668794 77456 UPMSat 2 1 46276U 20061E 21343.65370526 .00000877 00000-0 47893-4 0 9998 2 46276 97.4160 53.7780 0002990 101.9283 258.2285 15.16862714 70097 AmicalSat 1 46287U 20061R 21343.70391650 .00001016 00000-0 64637-4 0 9998 2 46287 97.4712 53.0100 0002344 178.8151 181.3085 15.10980150 69801 SALSAT 1 46495U 20068K 21343.88772880 .00000587 00000-0 47280-4 0 9990 2 46495 97.7095 280.4943 0016313 192.5536 167.5283 15.03709117 65694 BY70-3 1 46839U 20079N 21343.87171766 .00005123 00000-0 15073-3 0 9994 2 46839 97.2243 54.2638 0005480 304.4176 165.8379 15.35504908 61106 SPOC 1 46921U 98067RR 21343.71590415 .00012117 00000-0 15275-3 0 9992 2 46921 51.6381 179.0292 0000880 107.2766 252.8324 15.60048394 62164 Bobcat-1 1 46922U 98067RS 21343.71102481 .00025104 00000-0 25157-3 0 9995 2 46922 51.6393 173.7819 0001747 160.1758 199.9306 15.65370874 62196 Neutron-1 1 46923U 98067RT 21343.81019158 .00012783 00000-0 16164-3 0 9992 2 46923 51.6387 178.9093 0001338 110.2468 249.8669 15.59909793 62201 CAPE 3 1 47309U 21002A 21343.74886634 .00001237 00000-0 65407-4 0 9996 2 47309 60.6849 356.1947 0037593 142.0191 218.3558 15.21715119 49556 AO-109 1 47311U 21002C 21343.75812049 .00001248 00000-0 64538-4 0 9995 2 47311 60.6875 354.5788 0034620 136.0988 224.2860 15.22532036 49556 MiTEE 1 1 47314U 21002F 21343.75768071 .00003045 00000-0 13129-3 0 9999 2 47314 60.6854 351.6490 0036309 128.2039 232.2328 15.24714257 49625 ExoCube 2 1 47319U 21002L 21343.77202833 .00001829 00000-0 89890-4 0 9992 2 47319 60.6852 355.1728 0035163 138.4418 221.9352 15.22147651 49518 UVSQ-SAT 1 47438U 21006AB 21343.66272618 .00001314 00000-0 76461-4 0 9993 2 47438 97.4662 41.5899 0011854 206.4984 153.5643 15.13718706 48558 YUSAT 1 1 47439U 21006AC 21343.79354103 .00001404 00000-0 81282-4 0 9995 2 47439 97.4667 41.7332 0011712 206.2399 153.8240 15.13803381 48571 SOMP 2b 1 47445U 21006AJ 21343.89543237 .00001025 00000-0 60772-4 0 9991 2 47445 97.4633 41.6213 0011420 209.6355 150.4231 15.13524473 48589 IDEASSat 1 47458U 21006AX 21343.65978501 .00001236 00000-0 72816-4 0 9991 2 47458 97.4725 41.7076 0010551 207.8462 152.2206 15.13386209 48547 RSP-01 1 47925U 98067SB 21343.67004803 .00012607 00000-0 17388-3 0 9994 2 47925 51.6392 186.9601 0000550 191.4546 168.6434 15.57596632 42025 TAUSAT-1 1 47926U 98067SC 21343.12667112 .00019988 00000-0 24935-3 0 9998 2 47926 51.6381 187.8163 0000895 229.8616 130.2299 15.59871675 41953 Tsuru 1 47927U 98067SD 21343.84785233 .00011827 00000-0 16825-3 0 9996 2 47927 51.6395 186.6471 0000420 214.2278 145.8687 15.56826992 42047 STARS-EC 1 47928U 98067SE 21343.83371842 .00020364 00000-0 25288-3 0 9992 2 47928 51.6385 185.0412 0003482 86.5470 273.5921 15.59975967 42040 Maya-2 1 47929U 98067SF 21343.84349557 .00011871 00000-0 16885-3 0 9998 2 47929 51.6395 186.6159 0000471 231.6104 128.4845 15.56828560 42001 OPUSAT-II 1 47930U 98067SG 21343.88363342 .00020941 00000-0 25261-3 0 9998 2 47930 51.6384 183.8872 0001689 197.5170 162.5765 15.60721785 42081 GuaraniSat-1 1 47931U 98067SH 21343.84002506 .00011995 00000-0 17024-3 0 9994 2 47931 51.6395 186.5977 0000498 231.5313 128.5634 15.56875366 42048 CubeSX-Sirius-HSE 1 47951U 21022V 21343.87265298 .00001338 00000-0 95359-4 0 9993 2 47951 97.5453 242.3819 0023295 73.9902 286.3897 15.06071361 39455 CubeSX-HSE 1 47952U 21022W 21343.86583111 .00001827 00000-0 12848-3 0 9994 2 47952 97.5439 242.3833 0023305 73.5757 286.8028 15.06115353 39453 KSU-Cubesat 1 47954U 21022Y 21343.71778512 .00000939 00000-0 67881-4 0 9992 2 47954 97.5460 242.2863 0023106 74.3425 286.0349 15.06226410 39153 GRBAlpha 1 47959U 21022AD 21343.86582111 .00001837 00000-0 12914-3 0 9995 2 47959 97.5455 242.4040 0023102 74.7037 285.6741 15.06122299 38273 Orbicraft-Zorkiy 1 47960U 21022AE 21343.92011542 .00001738 00000-0 12215-3 0 9993 2 47960 97.5473 242.5256 0022970 74.3104 286.0626 15.06203256 38975 STECCO 1 47962U 21022AG 21343.81265980 .00002321 00000-0 15681-3 0 9999 2 47962 97.5428 242.7303 0018100 70.4340 2.8135 15.07432904 38289 DO-111 1 47963U 21022AH 21343.69561225 .00002389 00000-0 15634-3 0 9999 2 47963 97.5448 242.9015 0020768 66.3400 294.0005 15.08546389 38306 MO-110 1 47964U 21022AJ 21343.68588300 .00001621 00000-0 10980-3 0 9999 2 47964 97.5446 242.7401 0021141 67.6077 292.7388 15.07720132 38276 FEES 1 48082U 21022AL 21343.69040028 .00001810 00000-0 12312-3 0 9993 2 48082 97.5447 242.6189 0017357 65.0235 295.2793 15.07459215 37978 RamSat 1 48850U 98067SL 21343.57699462 .00007893 00000-0 12960-3 0 9994 2 48850 51.6397 192.3038 0004463 88.2665 271.8836 15.53414541 27698 MO-112 1 48868U 98067SP 21343.87022515 .00020163 00000-0 27243-3 0 9990 2 48868 51.6382 189.0128 0003535 127.1087 233.0229 15.57735640 26543 TUBIN 1 48900U 21059X 21343.85732574 .00001012 00000-0 61758-4 0 9997 2 48900 97.5312 110.2393 0011485 42.6799 118.4264 15.12539765 25248 IT-SPINS 1 49017U 21013G 21343.71316345 .00000548 00000-0 36656-4 0 9998 2 49017 51.5970 225.2908 0007408 95.8425 264.3397 15.23477328 24833 LEDSAT 1 49069U 21073D 21343.66434392 .00000763 00000-0 54259-4 0 9996 2 49069 97.5474 55.3055 0027021 221.5164 138.4012 15.07367261 17232 CUTE 1 49263U 21088D 21343.70231982 .00000164 00000-0 17176-4 0 9995 2 49263 97.6136 50.4009 0018114 1.3547 358.7724 15.01770347 10935 Binar-1 1 49272U 98067SR 21343.70319715 .00006751 00000-0 11848-3 0 9994 2 49272 51.6399 193.8845 0003429 332.3294 27.7513 15.51803316 10077 Maya-3 1 49273U 98067SS 21343.69562723 .00008832 00000-0 15046-3 0 9998 2 49273 51.6398 193.8344 0002975 325.6843 34.3954 15.52204341 10078 Maya-4 1 49274U 98067ST 21343.82624870 .00008606 00000-0 14708-3 0 9999 2 49274 51.6400 193.2065 0002927 324.5217 35.5578 15.52151551 10098 CUAVA-1 1 49275U 98067SU 21343.84313209 .00012132 00000-0 20399-3 0 9995 2 49275 51.6404 193.0803 0003155 347.0645 124.7532 15.52172928 10047 TeikyoSat 4 1 49396U 21102B 21343.96036411 .00000090 00000-0 11837-4 0 9993 2 49396 97.5587 42.6463 0015124 162.8876 197.2861 15.00259095 4633 Z-Sat 1 49399U 21102E 21343.85938781 .00000980 00000-0 79123-4 0 9995 2 49399 97.5602 42.6284 0019951 150.0878 210.1484 15.01951122 4624 KOSEN 1 1 49402U 21102H 21343.84124134 .00001188 00000-0 92615-4 0 9990 2 49402 97.5598 42.6339 0023675 142.8758 217.4088 15.02858787 46226 /EX